SWT509 ELLX-EGPK

Flight info

Callsign SWT509
Flight time 1h 31m
Altitude 38000
Route ELLX/24 N0443F380 DIK5X DIK N852 TERLA L608 DENUT L610 GILDA M14 STOAT L613 HALIF DCT APPLE DCT EGPK/12
Aircraft B737/M-V/N

Departure

Time 2026-05-05 13:47
Airport Luxembourg-Findel International Airport (ELLX)

Arrival

Time 2026-05-05 15:18
Airport Glasgow Prestwick Airport (EGPK)
Time Latitude Longitude Altitude Speed Heading
2026-05-05 13:19 49.63598 6.22618 1221 ft 0 kts 240°
2026-05-05 13:38 49.63603 6.22630 1221 ft 2 kts 238°
2026-05-05 13:39 49.63611 6.22652 1221 ft 2 kts 240°
2026-05-05 13:39 49.63619 6.22674 1222 ft 2 kts 239°
2026-05-05 13:39 49.63628 6.22696 1222 ft 2 kts 239°
2026-05-05 13:39 49.63638 6.22717 1222 ft 2 kts 217°
2026-05-05 13:40 49.63653 6.22727 1223 ft 2 kts 176°
2026-05-05 13:40 49.63663 6.22724 1223 ft 1 kts 156°
2026-05-05 13:40 49.63664 6.22723 1223 ft 0 kts 154°
2026-05-05 13:43 49.63650 6.22735 1223 ft 5 kts 151°
2026-05-05 13:43 49.63608 6.22771 1221 ft 9 kts 150°
2026-05-05 13:43 49.63551 6.22823 1218 ft 11 kts 149°
2026-05-05 13:43 49.63500 6.22904 1218 ft 11 kts 95°
2026-05-05 13:44 49.63533 6.23008 1220 ft 11 kts 60°
2026-05-05 13:44 49.63577 6.23126 1220 ft 15 kts 60°
2026-05-05 13:44 49.63635 6.23284 1221 ft 17 kts 64°
2026-05-05 13:44 49.63668 6.23421 1219 ft 7 kts 102°
2026-05-05 13:45 49.63643 6.23457 1219 ft 0 kts 154°
2026-05-05 13:46 49.63629 6.23468 1219 ft 5 kts 154°
2026-05-05 13:46 49.63577 6.23509 1221 ft 10 kts 152°
2026-05-05 13:46 49.63515 6.23488 1223 ft 10 kts 232°
2026-05-05 13:46 49.63441 6.23288 1221 ft 50 kts 240°
2026-05-05 13:47 49.63142 6.22488 1220 ft 118 kts 240°
2026-05-05 13:47 49.62655 6.21161 1402 ft 155 kts 239°
2026-05-05 13:47 49.62114 6.19657 2051 ft 166 kts 239°
2026-05-05 13:47 49.61530 6.18111 2865 ft 165 kts 239°
2026-05-05 13:48 49.60916 6.16532 3397 ft 184 kts 239°
2026-05-05 13:48 49.60251 6.14786 3992 ft 193 kts 238°
2026-05-05 13:48 49.59557 6.12980 4593 ft 201 kts 238°
2026-05-05 13:48 49.58809 6.11010 4825 ft 225 kts 237°
2026-05-05 13:49 49.57981 6.08876 5258 ft 238 kts 237°
2026-05-05 13:49 49.57144 6.06686 5992 ft 237 kts 242°
2026-05-05 13:49 49.56741 6.04176 6563 ft 250 kts 268°
2026-05-05 13:49 49.57131 6.01504 7106 ft 269 kts 292°
2026-05-05 13:50 49.58274 5.99099 7648 ft 291 kts 318°
2026-05-05 13:50 49.60129 5.97717 8428 ft 300 kts 350°
2026-05-05 13:50 49.62182 5.97879 9553 ft 298 kts 18°
2026-05-05 13:50 49.64085 5.99136 10453 ft 302 kts 28°
2026-05-05 13:51 49.66029 6.00683 10775 ft 328 kts 28°
2026-05-05 13:51 49.68146 6.02279 11212 ft 346 kts 26°
2026-05-05 13:51 49.70372 6.03795 11978 ft 353 kts 24°
2026-05-05 13:51 49.72654 6.05224 12868 ft 356 kts 22°
2026-05-05 13:52 49.74982 6.06606 13744 ft 360 kts 21°
2026-05-05 13:52 49.77348 6.07973 14553 ft 365 kts 21°
2026-05-05 13:52 49.79755 6.09352 15413 ft 372 kts 21°
2026-05-05 13:52 49.82199 6.10753 16292 ft 376 kts 21°
2026-05-05 13:53 49.84703 6.12005 17074 ft 382 kts 10°
2026-05-05 13:53 49.87368 6.12121 17854 ft 387 kts 351°
2026-05-05 13:53 49.89959 6.10992 18584 ft 389 kts 339°
2026-05-05 13:53 49.92501 6.09468 19245 ft 394 kts 338°
2026-05-05 13:54 49.95074 6.07915 19916 ft 399 kts 338°
2026-05-05 13:54 49.97680 6.06379 20656 ft 404 kts 338°
2026-05-05 13:54 50.00335 6.04845 21415 ft 409 kts 339°
2026-05-05 13:54 50.03022 6.03305 22185 ft 414 kts 339°
2026-05-05 13:55 50.05746 6.01742 22920 ft 420 kts 339°
2026-05-05 13:55 50.08508 6.00152 23513 ft 425 kts 339°
2026-05-05 13:55 50.11295 5.98547 24065 ft 429 kts 339°
2026-05-05 13:55 50.14137 5.96909 24619 ft 432 kts 339°
2026-05-05 13:56 50.16967 5.95276 25160 ft 435 kts 339°
2026-05-05 13:56 50.19825 5.93624 25686 ft 439 kts 339°
2026-05-05 13:56 50.22725 5.91946 26204 ft 442 kts 339°
2026-05-05 13:56 50.25584 5.90289 26714 ft 445 kts 339°
2026-05-05 13:57 50.28538 5.88576 27213 ft 449 kts 339°
2026-05-05 13:57 50.31477 5.86868 27715 ft 452 kts 338°
2026-05-05 13:57 50.34391 5.85173 28204 ft 455 kts 338°
2026-05-05 13:57 50.37365 5.83440 28671 ft 458 kts 338°
2026-05-05 13:58 50.40359 5.81693 29130 ft 461 kts 338°
2026-05-05 13:58 50.43373 5.79932 29604 ft 464 kts 338°
2026-05-05 13:58 50.46442 5.78137 30030 ft 466 kts 338°
2026-05-05 13:58 50.49449 5.76376 30374 ft 469 kts 338°
2026-05-05 13:59 50.55602 5.72765 31020 ft 474 kts 338°
2026-05-05 13:59 50.58693 5.70961 31427 ft 475 kts 339°
2026-05-05 14:00 50.64896 5.67558 32332 ft 469 kts 328°
2026-05-05 14:00 50.66701 5.65592 32564 ft 464 kts 315°
2026-05-05 14:00 50.69386 5.60489 33144 ft 452 kts 295°
2026-05-05 14:00 50.70594 5.55985 33586 ft 444 kts 284°
2026-05-05 14:01 50.71527 5.51282 33981 ft 442 kts 282°
2026-05-05 14:01 50.72389 5.46691 34203 ft 445 kts 282°
2026-05-05 14:01 50.74178 5.37228 34580 ft 451 kts 283°
2026-05-05 14:02 50.75094 5.32534 35197 ft 443 kts 283°
2026-05-05 14:02 50.76018 5.27845 35639 ft 440 kts 283°
2026-05-05 14:02 50.76929 5.23225 35856 ft 442 kts 283°
2026-05-05 14:02 50.77845 5.18572 36029 ft 445 kts 283°
2026-05-05 14:03 50.78764 5.13897 36309 ft 445 kts 283°
2026-05-05 14:03 50.79676 5.09242 36659 ft 443 kts 283°
2026-05-05 14:03 50.80585 5.04589 37005 ft 442 kts 283°
2026-05-05 14:03 50.81482 4.99949 37267 ft 442 kts 283°
2026-05-05 14:04 50.82372 4.95287 37537 ft 443 kts 283°
2026-05-05 14:04 50.83257 4.90630 37829 ft 442 kts 283°
2026-05-05 14:04 50.85036 4.81245 37895 ft 447 kts 283°
2026-05-05 14:05 50.86813 4.71844 37868 ft 442 kts 283°
2026-05-05 14:05 50.88558 4.62585 37899 ft 438 kts 283°
2026-05-05 14:06 50.90427 4.53411 37874 ft 440 kts 290°
2026-05-05 14:06 50.93467 4.44946 37881 ft 443 kts 299°
2026-05-05 14:07 50.96732 4.36677 37892 ft 443 kts 299°
2026-05-05 14:07 50.99457 4.29686 37888 ft 444 kts 298°
2026-05-05 14:08 51.02667 4.21317 37888 ft 444 kts 298°
2026-05-05 14:08 51.05868 4.12903 37894 ft 445 kts 298°
2026-05-05 14:09 51.09069 4.04461 37889 ft 446 kts 298°
2026-05-05 14:09 51.12286 3.95951 37887 ft 446 kts 298°
2026-05-05 14:10 51.15480 3.87477 37882 ft 446 kts 298°
2026-05-05 14:10 51.18746 3.79043 37880 ft 447 kts 301°
2026-05-05 14:11 51.22238 3.70857 37890 ft 446 kts 302°
2026-05-05 14:11 51.25751 3.62711 37897 ft 445 kts 302°
2026-05-05 14:12 51.29225 3.54543 37902 ft 444 kts 301°
2026-05-05 14:12 51.32669 3.46360 37904 ft 443 kts 301°
2026-05-05 14:13 51.36059 3.38258 37912 ft 443 kts 301°
2026-05-05 14:13 51.39484 3.30044 37920 ft 445 kts 301°
2026-05-05 14:14 51.42922 3.21774 37917 ft 446 kts 301°
2026-05-05 14:14 51.46350 3.13509 37910 ft 443 kts 301°
2026-05-05 14:15 51.49725 3.05346 37920 ft 441 kts 301°
2026-05-05 14:15 51.53124 2.97094 37924 ft 439 kts 301°
2026-05-05 14:16 51.56477 2.88926 37937 ft 439 kts 301°
2026-05-05 14:16 51.59801 2.80811 37945 ft 444 kts 301°
2026-05-05 14:17 51.63195 2.72494 37934 ft 445 kts 301°
2026-05-05 14:17 51.66571 2.64192 37940 ft 446 kts 301°
2026-05-05 14:18 51.69963 2.55825 37942 ft 446 kts 301°
2026-05-05 14:18 51.71655 2.51644 37813 ft 446 kts 301°
2026-05-05 14:18 51.73344 2.47462 37517 ft 443 kts 301°
2026-05-05 14:19 51.75021 2.43305 37256 ft 441 kts 301°
2026-05-05 14:19 51.76692 2.39152 37000 ft 441 kts 301°
2026-05-05 14:19 51.78368 2.34981 36743 ft 442 kts 300°
2026-05-05 14:19 51.80040 2.30813 36488 ft 443 kts 300°
2026-05-05 14:20 51.81716 2.26627 36238 ft 443 kts 300°
2026-05-05 14:20 51.83387 2.22446 36020 ft 443 kts 300°
2026-05-05 14:20 51.86720 2.14094 35957 ft 442 kts 300°
2026-05-05 14:21 51.90047 2.05726 35956 ft 442 kts 300°
2026-05-05 14:21 51.93368 1.97348 35962 ft 442 kts 300°
2026-05-05 14:22 51.96680 1.88963 35962 ft 442 kts 300°
2026-05-05 14:22 51.99989 1.80560 35965 ft 442 kts 300°
2026-05-05 14:23 52.03287 1.72155 35964 ft 441 kts 300°
2026-05-05 14:23 52.06577 1.63745 35969 ft 441 kts 300°
2026-05-05 14:24 52.09855 1.55339 35971 ft 440 kts 300°
2026-05-05 14:24 52.13130 1.46909 35969 ft 440 kts 300°
2026-05-05 14:25 52.16393 1.38484 35967 ft 440 kts 299°
2026-05-05 14:25 52.19650 1.30045 35966 ft 440 kts 299°
2026-05-05 14:26 52.22904 1.21587 35960 ft 440 kts 299°
2026-05-05 14:26 52.26147 1.13132 35964 ft 440 kts 299°
2026-05-05 14:27 52.29386 1.04657 35965 ft 440 kts 299°
2026-05-05 14:27 52.32620 0.96168 35962 ft 440 kts 299°
2026-05-05 14:28 52.35848 0.87665 35965 ft 440 kts 299°
2026-05-05 14:28 52.39074 0.79138 35974 ft 441 kts 299°
2026-05-05 14:29 52.42340 0.70476 35972 ft 441 kts 299°
2026-05-05 14:29 52.45558 0.61913 35974 ft 441 kts 299°
2026-05-05 14:30 52.48775 0.53326 35975 ft 442 kts 299°
2026-05-05 14:30 52.51987 0.44719 35972 ft 442 kts 299°
2026-05-05 14:31 52.55195 0.36097 35969 ft 442 kts 299°
2026-05-05 14:31 52.58394 0.27468 35969 ft 442 kts 299°
2026-05-05 14:32 52.61590 0.18815 35968 ft 442 kts 299°
2026-05-05 14:32 52.64778 0.10158 35962 ft 442 kts 299°
2026-05-05 14:33 52.67960 0.01487 35964 ft 442 kts 299°
2026-05-05 14:33 52.71127 -0.07175 35963 ft 440 kts 299°
2026-05-05 14:34 52.74278 -0.15822 35969 ft 439 kts 299°
2026-05-05 14:34 52.77413 -0.24453 35973 ft 438 kts 299°
2026-05-05 14:35 52.80535 -0.33081 35988 ft 437 kts 299°
2026-05-05 14:35 52.83652 -0.41724 35998 ft 437 kts 299°
2026-05-05 14:36 52.86759 -0.50370 35997 ft 437 kts 299°
2026-05-05 14:36 52.89861 -0.59031 36000 ft 437 kts 299°
2026-05-05 14:37 52.92960 -0.67714 35993 ft 438 kts 299°
2026-05-05 14:37 52.96058 -0.76420 35991 ft 438 kts 299°
2026-05-05 14:38 52.99197 -0.85101 35985 ft 440 kts 304°
2026-05-05 14:38 53.03456 -0.92362 35986 ft 442 kts 322°
2026-05-05 14:39 53.08767 -0.97580 35991 ft 444 kts 330°
2026-05-05 14:39 53.14215 -1.02438 35988 ft 445 kts 330°
2026-05-05 14:40 53.19650 -1.07378 35983 ft 445 kts 330°
2026-05-05 14:40 53.25065 -1.12387 35978 ft 445 kts 330°
2026-05-05 14:41 53.30513 -1.17456 35988 ft 445 kts 330°
2026-05-05 14:41 53.35889 -1.22471 35987 ft 445 kts 329°
2026-05-05 14:42 53.40416 -1.26701 35987 ft 445 kts 329°
2026-05-05 14:42 53.45821 -1.31777 35990 ft 445 kts 329°
2026-05-05 14:43 53.51209 -1.36871 35993 ft 444 kts 329°
2026-05-05 14:43 53.56620 -1.42003 36001 ft 444 kts 329°
2026-05-05 14:44 53.61980 -1.47098 36010 ft 443 kts 329°
2026-05-05 14:44 53.67354 -1.52220 36012 ft 442 kts 329°
2026-05-05 14:45 53.72707 -1.57337 36022 ft 442 kts 328°
2026-05-05 14:45 53.77828 -1.63014 36029 ft 439 kts 323°
2026-05-05 14:46 53.82787 -1.69060 36023 ft 439 kts 322°
2026-05-05 14:46 53.87737 -1.75103 36024 ft 439 kts 322°
2026-05-05 14:47 53.92697 -1.81106 36022 ft 438 kts 323°
2026-05-05 14:47 53.97663 -1.87102 36026 ft 438 kts 323°
2026-05-05 14:48 54.02629 -1.93113 36023 ft 438 kts 322°
2026-05-05 14:48 54.07618 -1.99171 36029 ft 437 kts 322°
2026-05-05 14:49 54.12572 -2.05205 36033 ft 438 kts 322°
2026-05-05 14:49 54.17518 -2.11249 36022 ft 437 kts 322°
2026-05-05 14:50 54.22458 -2.17303 36040 ft 437 kts 322°
2026-05-05 14:50 54.24934 -2.20345 35749 ft 442 kts 322°
2026-05-05 14:50 54.27435 -2.23423 35321 ft 442 kts 321°
2026-05-05 14:51 54.29921 -2.26485 34903 ft 439 kts 321°
2026-05-05 14:51 54.32391 -2.29531 34498 ft 437 kts 321°
2026-05-05 14:51 54.34859 -2.32582 34098 ft 437 kts 321°
2026-05-05 14:51 54.37327 -2.35637 33609 ft 438 kts 321°
2026-05-05 14:52 54.39795 -2.38697 33129 ft 438 kts 321°
2026-05-05 14:52 54.42263 -2.41761 32656 ft 438 kts 321°
2026-05-05 14:52 54.44739 -2.44840 32186 ft 440 kts 320°
2026-05-05 14:52 54.47218 -2.47929 31731 ft 441 kts 320°
2026-05-05 14:53 54.49548 -2.51341 31261 ft 438 kts 311°
2026-05-05 14:53 54.51536 -2.55272 30811 ft 434 kts 302°
2026-05-05 14:53 54.53182 -2.59603 30387 ft 433 kts 299°
2026-05-05 14:53 54.54796 -2.63997 29914 ft 434 kts 299°
2026-05-05 14:54 54.56406 -2.68396 29408 ft 434 kts 299°
2026-05-05 14:54 54.58021 -2.72804 28899 ft 435 kts 299°
2026-05-05 14:54 54.59641 -2.77206 28404 ft 435 kts 299°
2026-05-05 14:54 54.61266 -2.81611 27928 ft 437 kts 300°
2026-05-05 14:55 54.62906 -2.86055 27453 ft 441 kts 300°
2026-05-05 14:55 54.64544 -2.90490 26970 ft 433 kts 300°
2026-05-05 14:55 54.66146 -2.94824 26496 ft 423 kts 300°
2026-05-05 14:55 54.67714 -2.99073 26046 ft 417 kts 300°
2026-05-05 14:56 54.69265 -3.03287 25599 ft 415 kts 300°
2026-05-05 14:56 54.70808 -3.07494 25156 ft 413 kts 300°
2026-05-05 14:56 54.72341 -3.11680 24716 ft 410 kts 300°
2026-05-05 14:56 54.73860 -3.15833 24299 ft 407 kts 300°
2026-05-05 14:57 54.75369 -3.19967 23902 ft 405 kts 300°
2026-05-05 14:57 54.76868 -3.24080 23483 ft 403 kts 300°
2026-05-05 14:57 54.78358 -3.28174 23016 ft 401 kts 300°
2026-05-05 14:57 54.79840 -3.32252 22546 ft 399 kts 300°
2026-05-05 14:58 54.81311 -3.36309 22091 ft 397 kts 300°
2026-05-05 14:58 54.82773 -3.40344 21644 ft 394 kts 300°
2026-05-05 14:58 54.84229 -3.44371 21200 ft 392 kts 300°
2026-05-05 14:58 54.85663 -3.48345 20766 ft 389 kts 300°
2026-05-05 14:59 54.87100 -3.52333 20336 ft 387 kts 300°
2026-05-05 14:59 54.88504 -3.56233 19949 ft 384 kts 300°
2026-05-05 14:59 54.89928 -3.60198 19573 ft 381 kts 300°
2026-05-05 14:59 54.91324 -3.64091 19198 ft 378 kts 300°
2026-05-05 15:00 54.92704 -3.67943 18848 ft 376 kts 300°
2026-05-05 15:00 54.93622 -3.70511 18611 ft 375 kts 300°
2026-05-05 15:00 54.95455 -3.75647 18109 ft 373 kts 301°
2026-05-05 15:00 54.96820 -3.79474 17690 ft 371 kts 301°
2026-05-05 15:01 54.98177 -3.83288 17310 ft 370 kts 301°
2026-05-05 15:01 54.99525 -3.87083 16904 ft 368 kts 301°
2026-05-05 15:01 55.00865 -3.90862 16490 ft 364 kts 301°
2026-05-05 15:01 55.02183 -3.94579 16113 ft 355 kts 301°
2026-05-05 15:02 55.03455 -3.98176 15797 ft 342 kts 301°
2026-05-05 15:02 55.04677 -4.01633 15530 ft 329 kts 301°
2026-05-05 15:02 55.05856 -4.04973 15277 ft 318 kts 301°
2026-05-05 15:02 55.06993 -4.08202 15031 ft 308 kts 301°
2026-05-05 15:03 55.08097 -4.11340 14769 ft 299 kts 300°
2026-05-05 15:03 55.09165 -4.14381 14496 ft 291 kts 300°
2026-05-05 15:03 55.10210 -4.17361 14226 ft 284 kts 300°
2026-05-05 15:03 55.11231 -4.20274 13974 ft 278 kts 300°
2026-05-05 15:04 55.12229 -4.23125 13692 ft 272 kts 300°
2026-05-05 15:04 55.13143 -4.25739 13403 ft 267 kts 301°
2026-05-05 15:04 55.14102 -4.28486 13107 ft 262 kts 301°
2026-05-05 15:04 55.15040 -4.31175 12814 ft 258 kts 300°
2026-05-05 15:05 55.16875 -4.36444 12226 ft 249 kts 301°
2026-05-05 15:05 55.17770 -4.39016 11948 ft 247 kts 300°
2026-05-05 15:05 55.18657 -4.41572 11653 ft 245 kts 300°
2026-05-05 15:06 55.19540 -4.44117 11349 ft 244 kts 301°
2026-05-05 15:06 55.20417 -4.46649 11051 ft 243 kts 301°
2026-05-05 15:06 55.21288 -4.49164 10752 ft 241 kts 301°
2026-05-05 15:06 55.22154 -4.51667 10464 ft 240 kts 301°
2026-05-05 15:07 55.23017 -4.54164 10168 ft 239 kts 301°
2026-05-05 15:07 55.23874 -4.56647 9872 ft 238 kts 301°
2026-05-05 15:07 55.24729 -4.59125 9544 ft 237 kts 301°
2026-05-05 15:07 55.25576 -4.61585 9224 ft 235 kts 301°
2026-05-05 15:08 55.26410 -4.64007 8911 ft 234 kts 301°
2026-05-05 15:08 55.27261 -4.66481 8591 ft 234 kts 301°
2026-05-05 15:08 55.28101 -4.68924 8287 ft 234 kts 301°
2026-05-05 15:08 55.28940 -4.71371 7975 ft 234 kts 302°
2026-05-05 15:09 55.29778 -4.73817 7657 ft 234 kts 302°
2026-05-05 15:09 55.30580 -4.76139 7367 ft 233 kts 306°
2026-05-05 15:09 55.31714 -4.78058 7058 ft 230 kts 329°
2026-05-05 15:09 55.33177 -4.79145 6752 ft 229 kts 346°
2026-05-05 15:10 55.34728 -4.79766 6451 ft 230 kts 350°
2026-05-05 15:10 55.36312 -4.80319 6103 ft 232 kts 350°
2026-05-05 15:10 55.37897 -4.80872 5759 ft 232 kts 350°
2026-05-05 15:10 55.39479 -4.81433 5420 ft 233 kts 350°
2026-05-05 15:11 55.41065 -4.82004 5139 ft 231 kts 350°
2026-05-05 15:11 55.42628 -4.82573 4876 ft 228 kts 349°
2026-05-05 15:11 55.44174 -4.83141 4621 ft 226 kts 349°
2026-05-05 15:11 55.45706 -4.83706 4353 ft 224 kts 349°
2026-05-05 15:12 55.47224 -4.84270 4100 ft 220 kts 349°
2026-05-05 15:12 55.48696 -4.84817 3854 ft 213 kts 349°
2026-05-05 15:12 55.50122 -4.85348 3578 ft 206 kts 349°
2026-05-05 15:12 55.51508 -4.85818 3310 ft 199 kts 353°
2026-05-05 15:13 55.52854 -4.86130 3063 ft 191 kts 354°
2026-05-05 15:13 55.54155 -4.86416 2784 ft 186 kts 354°
2026-05-05 15:13 55.55421 -4.86697 2518 ft 182 kts 354°
2026-05-05 15:13 55.56661 -4.86616 2232 ft 178 kts 17°
2026-05-05 15:14 55.57692 -4.85566 2048 ft 168 kts 45°
2026-05-05 15:14 55.58188 -4.83792 1981 ft 164 kts 90°
2026-05-05 15:14 55.57926 -4.81863 2020 ft 163 kts 98°
2026-05-05 15:14 55.57723 -4.79871 1995 ft 167 kts 107°
2026-05-05 15:15 55.57280 -4.78190 2010 ft 165 kts 111°
2026-05-05 15:15 55.56764 -4.76352 2008 ft 169 kts 115°
2026-05-05 15:15 55.56170 -4.74543 1844 ft 168 kts 118°
2026-05-05 15:15 55.55583 -4.72847 1621 ft 155 kts 118°
2026-05-05 15:16 55.55041 -4.71294 1436 ft 141 kts 117°
2026-05-05 15:16 55.54552 -4.69886 1241 ft 130 kts 117°
2026-05-05 15:16 55.54087 -4.68534 1050 ft 132 kts 118°
2026-05-05 15:16 55.53597 -4.67133 892 ft 135 kts 121°
2026-05-05 15:17 55.53074 -4.65673 701 ft 141 kts 120°
2026-05-05 15:17 55.52572 -4.64176 452 ft 143 kts 122°
2026-05-05 15:17 55.52044 -4.62646 280 ft 147 kts 122°
2026-05-05 15:17 55.51536 -4.61169 57 ft 136 kts 123°
2026-05-05 15:18 55.51084 -4.59879 49 ft 105 kts 121°
2026-05-05 15:18 55.50781 -4.59006 58 ft 62 kts 121°
2026-05-05 15:18 55.50607 -4.58498 65 ft 43 kts 118°
2026-05-05 15:18 55.50463 -4.58081 73 ft 38 kts 121°
2026-05-05 15:19 55.50355 -4.57767 64 ft 26 kts 121°
2026-05-05 15:19 55.50291 -4.57626 67 ft 11 kts 171°
2026-05-05 15:19 55.50217 -4.57671 71 ft 11 kts 206°
2026-05-05 15:19 55.50178 -4.57765 70 ft 11 kts 293°
2026-05-05 15:20 55.50216 -4.57880 66 ft 11 kts 301°
2026-05-05 15:20 55.50258 -4.57999 67 ft 12 kts 302°
2026-05-05 15:20 55.50299 -4.58120 69 ft 12 kts 301°
2026-05-05 15:20 55.50347 -4.58259 66 ft 15 kts 301°
2026-05-05 15:21 55.50404 -4.58424 67 ft 18 kts 301°
2026-05-05 15:21 55.50449 -4.58550 65 ft 20 kts 302°
2026-05-05 15:21 55.50526 -4.58788 57 ft 24 kts 293°
2026-05-05 15:21 55.50607 -4.59079 54 ft 27 kts 301°
2026-05-05 15:22 55.50701 -4.59347 50 ft 25 kts 302°
2026-05-05 15:22 55.50787 -4.59597 52 ft 23 kts 301°
2026-05-05 15:22 55.50869 -4.59834 51 ft 22 kts 301°
2026-05-05 15:22 55.50950 -4.60065 45 ft 22 kts 302°
2026-05-05 15:23 55.51027 -4.60292 47 ft 21 kts 301°
2026-05-05 15:23 55.51102 -4.60507 47 ft 20 kts 300°
2026-05-05 15:23 55.51158 -4.60671 48 ft 11 kts 301°
2026-05-05 15:23 55.51142 -4.60746 47 ft 7 kts 213°
2026-05-05 15:24 55.51091 -4.60793 44 ft 9 kts 201°
2026-05-05 15:24 55.51067 -4.60836 44 ft 5 kts 256°
2026-05-05 15:24 55.51065 -4.60851 43 ft 0 kts 256°